Starlink 3004

operational
NORAD ID: 48880 Int'l Des: 2021-059 Owner: SPXS Country: US Constellation: starlink
LEOCIRCULARRETROGRADESSO

Über Starlink 3004

Beschreibung wird geladen...

Live-Position

3D-Globus wird geladen...

Nächste Überflüge

Höhenverlauf

Altitude vs Time

uPlot chart will show altitude changes over time

Zweizeiliger Elementsatz

1 48880U 21059B 25354.30590157 .00001365 00000-0 11088-3 0 9990
2 48880 97.6633 116.9917 0001473 204.5002 155.6153 15.01259636246899
Epoch: 20. Dez. 2025 • Age: 12 hours

Aktueller Status

Höhe 571.0 km
Geschwindigkeit 7.58 km/s
Subsatellitenpunkt 51.06°N, 69.25°W
Startdatum 30. Juni 2021
Alter 4.4 years
Typ internet

Startgruppe

Falcon 9 • Tr-2 • 2 satellites

Technische Details

Klassifizierung Payload
Masse 260.00 kg
Trockenmasse 248.00 kg
Gesamtmasse 260.00 kg
Länge 0.20 m
Durchmesser 2.80 m
Spannweite 9.00 m
Form Box + pan
Hersteller SPXS
Bus-Typ Starlink
Phasenstatus In Orbit
Besitzer/Staat SPXS/US

Große Konstellationen

Loading constellations...